CAPE
2332 1914 1767 1709 1459 1279 1253 1267 973 990 1060 809 815 1077 1139 1406 1541 1122 1052 1216 1654 1818 1921 2359 3043 3455 2972 3281 3706 3710 3471 3920 3808 3495 3516 3303 3103 2895 2570 2772 2891 2184
2425 2182 1963 1741 1708 1708 1877 1619 1150 849 1029 1288 983 962 1290 1444 1825 1949 1644 1630 1955 1900 1979 2206 2799 3230 3308 3042 3660 3556 4020 4020 3672 2872 3234 3557 3257 2698 2683 2805 2622 2403
2481 2329 2176 1912 1652 1923 1622 1620 1475 1279 1018 988 883 1123 1261 1539 1701 1885 1768 1696 1713 1489 1720 1970 2429 3106 2992 3008 3250 3318 3215 3976 3680 2979 3165 3671 3343 3080 3264 2611 2460 2503
2635 2411 2111 1744 1512 1635 1571 1554 1732 1613 1195 1047 1123 1172 1249 1409 1663 1645 2053 2078 1904 1645 1514 1920 2152 2358 2808 2930 3308 3135 3030 4162 3435 3702 3626 3748 3415 3055 2970 2943 2903 2630
2544 2407 2117 1987 1653 1733 1984 1834 1705 1623 1569 1402 1498 1559 1644 1759 1899 1726 1830 2266 2438 2017 1713 1881 2394 2423 2654 3056 3361 3456 3043 3343 3354 4033 3854 3723 3529 3308 2857 2652 2852 3027
2473 2412 2312 2051 1914 1966 2005 2144 2024 1903 2034 1923 1850 1782 1704 2030 2072 1848 1546 1780 2039 1602 1221 1494 1963 2594 2384 2694 2877 2890 2786 2650 2677 3522 3956 4101 3147 2444 2437 2591 3014 3154
2067 2311 2203 2038 1822 1772 2047 2162 2187 2138 2028 2062 2186 1965 1906 1889 2088 1971 1689 1753 1830 1757 1335 1308 2375 2498 2389 2713 2905 3485 3220 3042 3302 3812 4514 3980 3622 3358 2831 2602 2867 3058
1860 1902 2170 1986 1687 1542 1821 1807 1836 2177 2234 2226 2124 2243 2152 1936 2237 1894 1765 1699 1799 1741 1692 1583 2366 3042 2530 2591 3014 3084 3206 2681 3050 3581 4340 3822 3550 3615 3363 2937 3028 3358
1826 1982 2049 2021 1756 1405 1201 1382 1446 1699 2040 2100 1954 1966 2186 2046 2310 2247 2149 1941 1850 1848 2100 2120 2538 2840 2840 2731 2814 3049 3325 3103 2568 2690 2951 3252 3509 3742 3221 3021 2952 2903
1848 1903 1745 1817 1725 1431 1084 1027 1020 1287 1858 1881 1857 1877 1845 2248 2130 2391 2585 2687 2421 2275 2331 2467 2506 2520 2662 2758 2967 3253 3298 3439 3334 3090 2908 2872 3060 3234 3001 3027 2896 2912
1730 1875 1852 1822 1743 1533 1190 986 1039 996 1313 1632 1631 1554 1768 1955 2424 2314 2554 3044 2710 2521 2451 2501 2386 2508 2679 2479 2588 2778 2998 2925 2949 2965 3211 3294 3277 3211 3283 3443 3338 3202
1956 1649 1966 2036 1943 1684 1444 1283 1204 1135 1122 1356 1502 1420 1510 1884 2186 2490 2244 2777 2791 2439 2295 2526 2563 2515 2752 2847 2552 2446 2600 2864 2896 3077 3015 3124 3238 3157 3298 3310 3328 3225
2473 1999 1811 1976 2248 2141 1710 1409 1353 1291 1145 988 1253 1243 1213 1525 1882 2264 2424 2418 2702 2346 2026 2399 2818 2834 3132 3360 3142 2746 2821 2898 2777 2752 2813 2831 3031 2878 2778 2776 2818 2806
2055 1891 2045 1919 2135 2537 2742 2310 1732 1471 1477 1458 1298 1207 977 1109 1503 1677 2200 2314 2346 2384 2160 2143 2648 3034 3547 3748 3504 3090 2804 2842 2921 2840 2614 2633 2681 2751 2690 2548 2510 2468
2681 2847 2888 2547 2832 2916 2750 3047 2907 2122 1923 1905 1815 1446 1133 1030 1256 1521 1875 2064 2114 2129 2392 2269 2192 2694 2907 2948 3188 3368 3109 2705 2571 2654 2699 2679 2668 2616 2643 2695 2596 2442
3018 3052 2893 2464 2976 2965 3088 3006 2956 2063 1443 2131 1943 1856 1611 1221 1247 1511 1734 1935 2143 2254 2405 2393 2290 2473 2669 2820 2886 3115 2980 2565 2188 2286 2428 2512 2595 2762 2628 2568 2436 2433
3504 3140 2959 2692 3116 2985 2898 2945 2257 1877 1664 2123 2401 2043 1831 1541 1397 1489 1512 1626 1743 2002 2302 2314 2147 2378 2962 2457 2362 2288 2594 2569 2440 2459 2650 3018 2620 2630 3024 2674 2445 2176
3824 3370 3110 3002 2966 3072 3283 2553 1838 1450 1636 1524 1770 1962 2331 1537 1884 1902 2037 1607 1488 1606 1772 1962 2130 2420 2597 2474 2326 2211 2320 2552 2655 2218 2302 2438 2494 2156 1964 2111 2205 2080
3418 3458 3626 3764 3418 2945 2739 2469 1706 1754 1726 1493 1470 1622 1621 1832 2181 2193 2271 1839 1436 1659 1529 1755 1903 2618 2511 2415 2289 1978 1774 1802 2294 2620 2319 2323 2257 2280 2101 1907 2424 2387
3220 3150 3080 3039 2795 2398 2294 1952 1824 1754 1717 1653 1520 1548 1563 2080 2379 2516 1594 2252 2295 2137 2189 1952 2301 1427 1774 2239 2116 1881 1697 1579 2107 2234 2163 2155 2382 2536 2396 2067 2740 2791
2426 2293 2205 2235 2340 2165 1800 1500 1310 1125 1708 1592 1715 1594 1673 2039 2121 1515 1520 1652 1748 1065 1180 1476 1243 1054 1224 1545 1685 1533 1357 1243 1874 2122 2158 2330 2025 1962 2855 3015 2876 2435
2119 1925 1769 1874 1723 1582 1211 1208 1037 891 818 1004 863 1187 1264 1386 1516 1506 1575 1431 1126 1055 1333 1143 682 735 1287 1452 1419 1296 1111 1406 2023 2413 2620 2094 1541 1561 2545 3412 3297 3157
956 1275 1389 1689 1260 866 871 1144 817 783 764 717 610 694 778 742 693 889 1100 1561 1446 1372 1754 1546 1232 935 928 1154 1074 858 818 1591 2115 2494 2407 1803 1578 1529 2178 3144 2672 2231
317 386 342 338 366 436 529 484 573 646 694 637 612 723 694 594 586 508 1016 1364 1437 1425 1455 1798 1851 1060 722 709 653 573 535 1368 1485 1859 2038 1956 1505 1471 2340 2346 2092 2118
162 147 99 121 110 104 113 196 399 531 608 541 582 552 550 512 463 438 543 867 953 1293 1043 1141 1270 962 536 464 452 422 795 986 1344 1546 2228 2244 1890 1327 1476 1708 2425 2549
115 99 75 58 45 1 0 0 18 133 448 452 543 531 456 563 474 774 752 838 944 1508 1321 1401 1671 968 683 685 591 574 583 580 1084 1182 1324 1381 1511 1730 1091 1169 1207 1555
Wind_Speed
5 5 4 4 4 5 5 4 3 3 4 4 3 3 4 5 5 5 5 5 4 4 3 3 3 4 4 3 3 4 4 3 4 4 3 4 3 3 3 2 3 4
4 4 6 6 6 6 6 6 4 5 4 4 6 6 6 6 5 4 4 3 3 3 3 3 2 3 4 4 3 4 4 3 3 2 3 2 3 4 4 5 5 5
5 5 4 4 5 4 3 4 5 5 4 3 4 6 6 5 4 5 5 3 3 3 2 2 2 3 4 4 4 4 3 3 4 5 3 3 4 5 5 6 5 5
6 5 5 4 5 5 5 5 5 6 5 5 5 5 5 6 6 6 6 4 4 4 3 2 2 2 2 3 3 4 4 4 4 5 5 4 4 5 5 5 5 6
8 7 7 7 7 7 7 7 6 6 5 6 6 6 7 7 7 6 6 6 5 4 4 3 3 2 3 4 3 4 4 3 3 3 4 4 4 3 4 4 5 5
11 10 9 8 8 8 8 7 7 7 7 6 6 7 7 8 7 6 6 6 6 5 4 4 3 3 3 4 4 4 4 4 5 5 4 4 4 4 4 4 3 2
13 13 10 10 8 8 8 8 9 9 8 8 9 8 8 8 9 8 7 7 6 7 5 6 5 6 6 7 6 5 6 6 7 8 7 6 5 4 4 4 4 3
14 15 13 12 10 9 9 9 9 10 10 9 8 9 9 9 9 9 8 7 7 7 7 7 6 7 6 7 7 6 5 6 6 6 6 6 6 5 4 4 4 2
16 16 15 13 11 11 9 9 10 10 11 10 9 10 11 10 10 9 10 9 8 9 9 7 7 7 7 7 7 6 6 6 7 7 6 6 5 4 4 4 3 2
17 16 15 14 13 13 11 11 11 11 12 10 10 10 11 12 10 10 10 10 9 10 9 8 7 6 6 6 6 6 6 6 7 7 7 6 5 5 5 5 4 3
17 17 15 14 13 14 13 12 12 12 13 12 11 11 11 12 13 11 10 11 10 10 10 8 7 6 6 5 6 6 6 6 7 7 7 6 6 6 6 6 5 5
17 17 16 16 15 14 13 13 14 13 13 14 12 11 12 12 12 12 11 11 10 10 10 9 8 7 6 6 6 6 7 8 7 7 7 7 7 6 6 6 6 5
17 17 18 18 17 17 16 15 14 14 14 13 14 12 12 13 12 12 12 11 11 10 9 9 8 7 8 8 8 8 9 9 9 8 8 8 7 6 6 6 6 6
18 18 18 19 19 19 19 16 15 15 16 16 15 14 13 13 13 13 13 12 12 11 10 10 10 9 10 10 11 11 10 9 9 9 8 8 7 7 7 7 7 7
22 21 21 22 22 21 20 19 19 18 17 19 18 17 17 15 15 14 14 14 13 13 13 12 12 12 13 13 13 12 11 11 10 10 9 9 9 8 8 8 8 8
23 23 23 22 22 21 21 21 20 18 15 20 20 19 19 19 18 17 16 16 16 16 16 16 15 16 17 18 20 16 15 14 13 13 12 12 11 11 10 9 9 9
24 23 24 23 24 24 24 25 28 27 24 22 23 22 21 21 20 19 19 19 19 19 19 19 19 19 26 27 22 16 16 17 15 16 15 14 13 12 12 11 12 11
27 27 26 25 25 25 26 31 30 25 25 28 24 21 26 22 22 22 22 22 23 22 21 21 21 26 32 28 24 20 19 18 19 16 19 21 18 15 15 15 14 14
29 29 28 28 28 28 29 33 32 30 32 32 28 26 25 25 26 25 25 24 24 23 23 23 22 34 33 31 27 24 22 19 19 19 18 17 18 18 18 18 18 18
32 31 28 28 29 28 31 33 32 35 35 35 35 34 30 28 27 29 28 27 27 26 25 26 26 42 28 31 29 27 27 26 22 20 21 17 16 19 19 21 23 21
34 31 30 30 32 33 35 34 34 37 40 41 42 41 37 35 34 38 42 41 40 38 38 34 39 43 42 41 41 35 35 29 25 23 22 21 22 17 20 22 20 23
35 33 33 35 39 38 37 36 38 37 39 44 45 45 45 43 39 37 37 38 39 38 37 38 36 41 39 43 43 41 37 32 29 27 26 30 27 23 21 24 25 28
35 36 40 43 46 44 40 40 41 42 46 48 48 48 47 47 46 42 37 36 38 38 38 39 35 39 43 43 44 40 35 33 32 32 32 31 29 24 20 23 27 31
35 34 37 41 45 43 43 44 47 49 51 51 50 50 51 53 53 47 41 38 38 39 39 41 39 43 42 43 42 41 38 37 37 35 33 32 31 30 27 23 22 27
37 33 nan 32 36 40 39 35 38 46 48 46 47 49 49 52 53 50 45 43 42 42 45 43 41 46 50 47 43 41 39 38 38 36 35 34 34 32 31 25 23 28
38 nan nan nan nan nan nan nan nan 35 43 42 42 42 44 47 51 52 51 48 47 45 45 45 47 50 50 49 47 44 43 38 36 35 33 32 33 32 30 27 26 24
Wind_Direction
214 216 208 198 195 194 201 203 189 202 199 193 196 201 195 208 208 195 192 196 193 164 168 167 165 170 174 176 167 161 166 180 175 202 198 179 170 131 118 112 101 90
215 212 213 206 207 205 202 196 205 189 221 197 183 206 211 210 219 217 216 208 206 172 167 181 171 164 168 174 183 157 174 177 168 179 202 166 138 126 114 107 107 117
234 226 221 216 221 233 218 220 206 209 215 209 205 200 207 225 216 231 222 217 203 182 234 182 174 173 169 179 179 167 164 174 163 157 162 165 146 140 134 130 123 111
249 237 229 223 221 234 236 232 232 218 208 219 212 217 214 208 228 237 241 233 213 204 192 229 191 180 196 188 187 177 174 187 171 171 171 174 163 145 141 144 143 145
250 249 235 229 226 228 234 236 237 243 224 218 226 231 231 223 220 226 240 245 238 224 232 219 232 209 222 213 204 191 192 199 212 210 189 183 183 172 158 164 164 162
241 240 243 234 232 234 235 240 239 235 240 236 232 232 243 247 233 226 231 238 253 251 239 249 251 254 252 257 240 215 212 216 224 241 227 220 207 193 197 208 211 189
240 245 246 246 244 244 239 239 238 234 235 230 239 240 238 246 248 239 236 232 222 233 243 246 242 238 243 241 243 240 237 225 218 222 227 230 232 222 211 208 214 200
239 242 247 247 251 253 252 246 244 242 237 234 235 244 242 238 244 249 250 243 237 240 235 241 247 247 239 241 240 238 238 243 251 250 243 231 230 233 238 230 227 229
243 244 248 253 255 256 261 257 256 254 249 245 240 241 252 246 246 243 244 251 246 239 244 239 238 238 240 234 230 230 230 224 224 235 239 234 235 238 237 247 243 237
246 243 246 253 258 258 260 261 256 260 261 256 250 241 248 256 250 248 250 248 246 246 246 240 239 238 236 243 246 233 224 225 223 220 219 222 222 225 230 240 241 240
241 246 247 249 253 255 266 269 266 260 261 262 258 255 250 252 258 254 252 254 249 250 249 246 240 237 238 235 236 241 236 228 225 227 233 231 221 222 228 233 229 224
241 241 244 247 247 250 254 264 269 269 266 263 258 257 258 256 257 259 260 261 256 251 250 249 239 231 235 233 232 234 237 235 234 231 230 231 230 234 239 242 241 245
247 245 243 241 243 245 247 250 258 265 266 262 260 255 257 260 261 261 259 262 268 264 260 255 250 241 236 241 234 228 230 231 229 234 233 233 235 234 232 237 247 254
245 244 246 243 240 242 243 243 250 256 258 259 258 260 255 255 257 259 259 260 264 267 266 260 261 255 252 248 243 241 240 237 235 228 228 235 237 239 236 237 246 252
243 246 252 251 248 247 247 243 232 227 247 256 255 254 255 254 257 256 257 261 260 260 261 261 259 259 255 256 255 252 243 240 241 239 239 239 237 234 240 244 245 245
243 248 252 252 257 257 252 248 248 244 238 258 253 251 252 251 252 256 258 260 262 264 263 260 256 251 253 256 248 246 250 247 242 240 239 238 241 242 241 244 249 251
244 248 249 252 254 255 254 254 246 233 226 238 253 254 254 254 249 255 256 258 260 261 264 261 258 255 263 267 265 250 240 242 244 241 247 249 246 248 246 242 244 249
242 245 248 250 251 252 257 259 260 257 250 249 245 252 254 250 259 255 253 255 256 258 260 261 261 267 274 274 269 265 254 241 240 244 240 238 242 245 252 254 252 252
239 244 250 253 253 254 256 259 257 253 252 253 252 245 246 262 259 257 256 253 253 255 258 261 260 272 281 278 275 272 268 256 243 242 247 253 248 245 243 251 252 250
238 242 245 247 247 249 254 258 258 257 255 254 252 250 246 242 257 262 256 249 245 246 254 257 260 262 265 273 276 275 269 264 248 241 241 245 256 255 255 250 246 250
233 237 241 242 245 248 252 255 256 257 257 257 257 257 254 247 242 242 247 247 246 242 239 234 242 240 254 260 261 262 262 262 253 249 248 242 236 249 262 263 265 259
237 240 242 247 250 249 251 255 256 257 259 258 258 256 254 255 252 246 247 250 251 249 247 246 245 241 240 248 256 263 267 263 261 258 252 246 241 228 240 258 257 254
234 239 244 246 250 250 252 258 262 260 260 259 260 258 257 256 255 252 248 251 254 253 251 250 249 249 246 245 245 249 256 257 257 256 255 257 252 250 247 256 261 263
227 237 245 243 243 245 251 256 259 257 258 259 258 256 256 254 253 252 251 250 248 246 248 249 249 249 250 251 254 250 245 246 250 252 254 252 249 245 248 258 269 274
230 236 nan 235 232 235 236 242 261 263 256 256 255 253 253 254 253 251 247 244 242 240 240 241 245 249 245 244 241 243 245 248 247 247 244 244 243 242 238 239 252 274
248 nan nan nan nan nan nan nan nan 250 254 254 254 251 249 250 251 249 247 243 241 241 241 240 240 244 244 245 243 239 238 242 245 245 241 238 241 245 244 241 241 245